Location: Caramacate
(10.0289°N, 66.7587°W)
Time: 19:44:16
(UTC+00:00)

ARIANE 6 FM1 Upper Stage - Pass Details

Date: 05 August 2024
Orbit: 567 x 594 km, 62.0° (Epoch: 06 September)

Event Time Altitude Azimuth Distance (km) Brightness Sun altitude
Rises 23:26:54 0° 336° (NNW) 2,819 6.9 -9.8°
Reaches altitude 10° 23:29:10 10° 338° (NNW) 1,916 6.0 -10.3°
Maximum altitude 23:33:29 79° 64° (ENE) 601 2.7 -11.3°
Drops below altitude 10° 23:37:48 10° 152° (SSE) 1,901 4.9 -12.3°
Enters shadow 23:37:50 10° 152° (SSE) 1,914 4.9 -12.3°
